This demonstration page uses our WeatherBlox Daily Observations layout. Learn more.

Left ArrowRight Arrow

Hourly Observations for April 13, 2020

Temp ( °F °C ) Dew Point ( °F °C ) Humidity (%) Winds ( mph kmh ) Pressure ( in mb ) Visibility ( mi km ) Precip ( " mm )
6:30 am 06:30 Cloudy 54 12 52 11 94 94 WNW 12 19 29.46 998 7 11 N/A
6:47 am 06:47 Cloudy with Mist and Fog 54 12 52 11 94 94 W 13 20 29.48 998 5 8 N/A
6:59 am 06:59 Cloudy with Light Rain 54 12 50 10 88 88 WNW 21 33 29.49 999 3 5 N/A
7:47 am 07:47 Cloudy 45 7 41 5 87 87 WNW 22 35 29.61 1003 7 11 N/A
8:11 am 08:11 Cloudy with Light Rain 45 7 39 4 81 81 WNW 21 33 29.65 1004 3 5 N/A
8:35 am 08:35 Cloudy 41 5 39 4 93 93 WNW 20 31 29.69 1005 10 16 N/A
8:48 am 08:48 Cloudy 41 5 37 3 87 87 WNW 23 37 29.70 1006 10 16 N/A
9:45 am 09:45 Cloudy 39 4 34 1 81 81 WNW 22 35 29.77 1008 10 16 N/A
10:24 am 10:24 Cloudy 39 4 32 0 75 75 WNW 26 43 29.82 1010 10 16 N/A
10:47 am 10:47 Cloudy 39 4 32 0 75 75 WNW 21 33 29.85 1011 10 16 N/A
11:46 am 11:46 Cloudy 39 4 30 -1 70 70 WNW 20 31 29.92 1013 10 16 N/A
12:45 pm 12:45 Cloudy 39 4 30 -1 70 70 WNW 20 31 29.96 1015 10 16 N/A
1:48 pm 13:48 Cloudy 39 4 32 0 75 75 W 21 33 30.01 1016 10 16 N/A
2:45 pm 14:45 Cloudy 41 5 32 0 70 70 WNW 12 19 30.04 1017 10 16 N/A
3:45 pm 15:45 Cloudy 45 7 32 0 61 61 WNW 9 15 30.05 1017 10 16 N/A
4:45 pm 16:45 Mostly Cloudy 45 7 30 -1 57 57 WNW 10 17 30.07 1018 10 16 N/A
5:45 pm 17:45 Mostly Cloudy 46 8 27 -3 46 46 WNW 10 17 30.07 1018 10 16 N/A
6:45 pm 18:45 Mostly Cloudy 48 9 28 -2 46 46 W 15 24 30.09 1019 10 16 N/A
7:45 pm 19:45 Partly Cloudy 45 7 27 -3 49 49 W 12 19 30.13 1020 10 16 N/A
8:45 pm 20:45 Mostly Clear 41 5 27 -3 57 57 W 7 11 30.15 1021 10 16 N/A
9:45 pm 21:45 Mostly Clear 41 5 27 -3 57 57 W 8 13 30.19 1022 10 16 N/A

Powered by AerisWeather